Station KWNW3 - 9087069 - Kewaunee MET, WI Image indicating link to RSS feed of recent meteorological observations for station KWNW3


Conditions at KWNW3 as of
(6:48 pm CDT)
2348 GMT on 06/20/2024:
     

Click on the graph icon in the table below to see a time series plot of the last five days of that observation.

5-day plot - Wind Direction Wind Direction (WDIR):NNE ( 20 deg true )
5-day plot - Wind Speed Wind Speed (WSPD): 5.1 kts
5-day plot - Wind Gust Wind Gust (GST): 9.9 kts
5-day plot - Atmospheric Pressure Atmospheric Pressure (PRES):30.25 in
5-day plot - Air Temperature Air Temperature (ATMP): 59.5 °F
5-day plot - Wind Speed at 10 Meters Wind Speed at 10 meters (WSPD10M): 5.8 kts
5-day plot - Wind Speed at 20 Meters Wind Speed at 20 meters (WSPD20M): 5.8 kts
5-day plot -  Wind Speed, Wind Gust and Atmospheric Pressure Combined plot of Wind Speed, Gust, and Air Pressure
NOS Water Level Observation Network Water Level
Previous observations
TIME
(CDT)
5-day plot - Wind Direction
WDIR
 
5-day plot - Wind Speed
WSPD
kts
5-day plot - Wind Gust
GST
kts
5-day plot - Wave Height
WVHT
ft
5-day plot - Dominant Wave Period
DPD
sec
5-day plot - Average Wave Period
APD
sec
5-day plot - Mean Wave Direction
MWD
 
5-day plot - Atmospheric Pressure
PRES
in
5-day plot - Pressure Tendency
PTDY
in
5-day plot - Air Temperature
ATMP
°F
5-day plot - Water Temperature
WTMP
°F
5-day plot - Dew Point
DEWP
°F
5-day plot - Salinity
SAL
psu
5-day plot - Visibility
VIS
nmi
5-day plot - Tide (above MLLW)
TIDE
ft
2024-06-20 06:42 pmNNE 6.0 8.9----30.25- 59.5-----
2024-06-20 06:36 pmNNE 8.0 8.9----30.25- 59.4-----
2024-06-20 06:30 pmNNE 6.0 8.9----30.26- 59.7-----
2024-06-20 06:24 pmNNE 7.0 9.9----30.26- 59.4-----
2024-06-20 06:18 pmNNE 7.0 9.9----30.25- 59.0-----
2024-06-20 06:12 pmNNE 8.0 11.1----30.25- 58.8-----
2024-06-20 06:06 pmNNE 7.0 8.9----30.26- 58.6-----
2024-06-20 06:00 pmNNE 5.1 8.0----30.26-0.03 59.4-----
2024-06-20 05:54 pmNNE 5.1 6.0----30.26- 59.7-----
2024-06-20 05:48 pmNNE 4.1 6.0----30.26- 59.9-----
2024-06-20 05:42 pmNNE 5.1 7.0----30.26- 60.3-----
2024-06-20 05:36 pmNNE 5.1 7.0----30.26- 60.6-----
2024-06-20 05:30 pm NE 5.1 7.0----30.27-------
2024-06-20 05:24 pmNNE 1.0 5.1----30.27-------
2024-06-20 05:18 pmNNE 2.9 6.0----30.26-------
2024-06-20 05:12 pmNNE 2.9 5.1----30.27-------
2024-06-20 05:06 pmNNE 4.1 7.0----30.27-------
2024-06-20 05:00 pmNNE 5.1 7.0----30.27-0.04 62.1-----
2024-06-20 04:54 pmNNE 2.9 7.0----30.27- 62.2-----
2024-06-20 04:48 pmNNE 4.1 6.0----30.27- 62.1-----
2024-06-20 04:42 pmNNE 2.9 7.0----30.27- 61.7-----
2024-06-20 04:36 pmNNE 5.1 8.9----30.27- 61.3-----
2024-06-20 04:30 pmNNE 6.0 8.9----30.27- 61.3-----
2024-06-20 04:24 pmNNE 5.1 8.0----30.28- 60.8-----
2024-06-20 04:18 pmNNE 4.1 8.9----30.28- 60.6-----
2024-06-20 04:12 pmNNE 7.0 11.1----30.28- 60.8-----
2024-06-20 04:06 pmNNE 6.0 9.9----30.28- 60.4-----
2024-06-20 04:00 pmNNE 6.0 11.1----30.28-0.03 60.6-----
2024-06-20 03:54 pmNNE 7.0 12.0----30.28- 61.7-----
2024-06-20 03:48 pmNNE 7.0 12.0----30.29- 61.7-----
2024-06-20 03:42 pmNNE 7.0 12.0----30.29- 61.7-----
2024-06-20 03:36 pmNNE 7.0 12.0----30.29- 60.8-----
2024-06-20 03:30 pmNNE 7.0 9.9----30.29- 59.7-----
2024-06-20 03:24 pmNNE 6.0 8.9----30.29- 59.2-----
2024-06-20 03:18 pmNNE 6.0 8.9----30.29- 59.2-----
2024-06-20 03:12 pmNNE 6.0 8.9----30.29- 59.4-----
2024-06-20 03:06 pmNNE 7.0 9.9----30.29- 59.7-----
2024-06-20 03:00 pmNNE 7.0 9.9----30.29-0.04 59.7-----
2024-06-20 02:54 pmNNE 7.0 11.1----30.29- 60.1-----
2024-06-20 02:48 pmNNE 6.0 9.9----30.29- 59.9-----
2024-06-20 02:42 pmNNE 8.0 9.9----30.29- 60.1-----
2024-06-20 02:36 pmNNE 8.0 11.1----30.29- 59.5-----
2024-06-20 02:30 pmNNE 7.0 12.0----30.29-------
2024-06-20 02:24 pmNNE 8.0 11.1----30.30-------
2024-06-20 02:18 pmNNE 6.0 8.9----30.30- 59.5-----
2024-06-20 02:12 pmNNE 2.9 6.0----30.30- 58.3-----
2024-06-20 02:06 pmNNE 5.1 8.0----30.31- 58.6-----
2024-06-20 02:00 pmNNE 6.0 8.9----30.31-0.02 57.7-----
2024-06-20 01:54 pmNNE 6.0 8.0----30.31- 56.5-----
2024-06-20 01:48 pmNNE 5.1 8.9----30.31- 56.5-----
2024-06-20 01:42 pmNNE 7.0 11.1----30.31- 57.0-----
2024-06-20 01:36 pmNNE 6.0 9.9----30.31- 57.9-----
2024-06-20 01:30 pmNNE 8.0 11.1----30.31- 59.5-----
2024-06-20 01:24 pmNNE 4.1 8.0----30.31- 60.4-----
2024-06-20 01:18 pm N 2.9 7.0----30.31- 59.5-----
2024-06-20 01:12 pm N 4.1 6.0----30.31- 59.7-----
2024-06-20 01:06 pmNNE 4.1 8.0----30.31- 59.2-----
2024-06-20 01:00 pm N 4.1 7.0----30.31-0.01 58.1-----
2024-06-20 12:54 pm N 5.1 8.0----30.31- 57.7-----
2024-06-20 12:48 pmNNE 7.0 8.9----30.31- 58.3-----
2024-06-20 12:42 pm N 5.1 11.1----30.31- 58.1-----
2024-06-20 12:36 pmNNE 6.0 12.0----30.31- 57.7-----
2024-06-20 12:30 pm N 6.0 9.9----30.31- 57.0-----
2024-06-20 12:24 pmNNE 7.0 11.1----30.31- 57.0-----
2024-06-20 12:18 pmNNE 7.0 12.0----30.31- 57.2-----
2024-06-20 12:12 pmNNE 6.0 11.1----30.32- 57.6-----
2024-06-20 12:06 pmNNE 6.0 9.9----30.32- 57.4-----
2024-06-20 12:00 pmNNE 5.1 8.9----30.33+0.00 58.1-----
2024-06-20 11:54 am N 4.1 9.9----30.33- 57.9-----
2024-06-20 11:48 am N 4.1 8.9----30.33- 57.6-----
2024-06-20 11:42 am N 5.1 8.9----30.33- 57.2-----
2024-06-20 11:36 am N 5.1 12.0----30.33- 57.0-----
2024-06-20 11:30 am N 7.0 12.0----30.33- 56.8-----
2024-06-20 11:24 am N 7.0 13.0----30.33- 56.7-----
2024-06-20 11:18 am N 8.0 13.0----30.33- 56.3-----
2024-06-20 11:12 amNNE 7.0 14.0----30.33- 55.9-----
2024-06-20 11:06 amNNE 8.9 14.0----30.33- 55.8-----
2024-06-20 11:00 amNNE 8.9 13.0----30.33+0.01 55.9-----
2024-06-20 10:54 amNNE 8.9 13.0----30.33- 56.1-----
2024-06-20 10:48 amNNE 9.9 14.0----30.33- 56.8-----
2024-06-20 10:42 amNNE 9.9 15.9----30.33- 56.8-----
2024-06-20 10:36 amNNE 9.9 15.9----30.33- 55.9-----
2024-06-20 10:30 amNNE 8.9 15.0----30.32- 55.6-----
2024-06-20 10:24 amNNE 11.1 15.0----30.32- 56.7-----
2024-06-20 10:18 amNNE 8.9 15.9----30.33- 56.8-----
2024-06-20 10:12 amNNE 9.9 15.9----30.33- 56.7-----
2024-06-20 10:06 amNNE 11.1 18.1----30.32- 56.3-----
2024-06-20 10:00 amNNE 9.9 15.9----30.33+0.01 56.1-----
2024-06-20 09:54 amNNE 8.9 15.9----30.32- 56.3-----
2024-06-20 09:48 amNNE 9.9 18.1----30.32- 56.5-----
2024-06-20 09:42 amNNE 11.1 15.0----30.33- 56.5-----
2024-06-20 09:36 amNNE 8.0 15.0----30.33- 56.5-----
2024-06-20 09:30 amNNE 8.0 15.0----30.33- 56.3-----
2024-06-20 09:24 am N 9.9 15.9----30.33- 56.1-----
2024-06-20 09:18 amNNE 8.9 15.9----30.32- 56.1-----
2024-06-20 09:12 amNNE 11.1 15.0----30.32- 56.3-----
2024-06-20 09:06 amNNE 8.9 15.0----30.33- 56.1-----
2024-06-20 09:00 am N 8.9 14.0----30.33+0.02 55.9-----
2024-06-20 08:54 am N 8.0 13.0----30.32- 55.4-----
2024-06-20 08:48 amNNE 8.0 15.0----30.32- 55.2-----
2024-06-20 08:42 amNNE 12.0 15.0----30.32- 55.9-----
2024-06-20 08:36 amNNE 9.9 14.0----30.33- 55.9-----
2024-06-20 08:30 amNNE 8.9 15.0----30.33- 55.9-----
2024-06-20 08:24 am N 7.0 12.0----30.33- 55.9-----
2024-06-20 08:18 amNNE 8.0 12.0----30.33- 56.1-----
2024-06-20 08:12 am N 8.0 15.9----30.32- 56.1-----
2024-06-20 08:06 amNNE 9.9 15.0----30.32- 56.1-----
2024-06-20 08:00 amNNE 9.9 15.0----30.32+0.03 56.1-----
2024-06-20 07:54 amNNE 11.1 15.0----30.33- 56.5-----
2024-06-20 07:48 amNNE 8.9 14.0----30.32- 56.5-----
2024-06-20 07:42 amNNE 8.9 14.0----30.32- 56.7-----
2024-06-20 07:36 am N 8.0 14.0----30.32- 56.7-----
2024-06-20 07:30 amNNE 8.0 14.0----30.32- 56.7-----
2024-06-20 07:24 am N 8.9 14.0----30.32- 56.7-----
2024-06-20 07:18 am N 8.9 13.0----30.32- 56.5-----
2024-06-20 07:12 am N 8.9 14.0----30.32- 56.5-----
2024-06-20 07:06 am N 8.0 15.0----30.32- 56.5-----
2024-06-20 07:00 am N 8.9 13.0----30.32+0.04 56.1-----
2024-06-20 06:54 amNNE 8.9 15.0----30.31- 56.1-----
2024-06-20 06:48 am N 9.9 17.1----30.32- 56.1-----
2024-06-20 06:42 am N 8.9 13.0----30.32- 56.1-----
2024-06-20 06:36 am N 8.9 17.1----30.32- 55.6-----
2024-06-20 06:30 am N 7.0 15.0----30.31- 55.0-----
2024-06-20 06:24 amNNE 8.0 15.0----30.31- 55.0-----
2024-06-20 06:18 amNNE 11.1 18.1----30.31- 55.0-----
2024-06-20 06:12 am N 8.0 13.0----30.31- 54.1-----
2024-06-20 06:06 amNNE 9.9 14.0----30.30- 54.3-----
2024-06-20 06:00 amNNE 8.9 14.0----30.30+0.02 53.6-----
2024-06-20 05:54 amNNE 9.9 14.0----30.30- 53.8-----
2024-06-20 05:48 amNNE 9.9 15.0----30.30- 55.0-----
2024-06-20 05:42 amNNE 8.9 14.0----30.30- 55.2-----
2024-06-20 05:36 amNNE 9.9 15.9----30.30- 55.9-----
2024-06-20 05:30 amNNE 8.9 15.9----30.30- 55.8-----
2024-06-20 05:24 am N 8.9 20.0----30.30- 55.8-----
2024-06-20 05:18 am N 8.9 15.0----30.29- 55.6-----
2024-06-20 05:12 am N 9.9 19.0----30.29- 55.9-----
2024-06-20 05:06 am N 9.9 15.9----30.29- 55.9-----
2024-06-20 05:00 am N 9.9 17.1----30.29+0.02 55.8-----
2024-06-20 04:54 am N 9.9 15.9----30.29- 55.4-----
2024-06-20 04:48 am N 8.0 14.0----30.29- 55.6-----
2024-06-20 04:42 am N 8.0 14.0----30.29- 55.6-----
2024-06-20 04:36 amNNE 8.0 13.0----30.29- 55.6-----
2024-06-20 04:30 amNNE 8.0 14.0----30.29- 55.8-----
2024-06-20 04:24 amNNE 8.0 14.0----30.29- 55.4-----
2024-06-20 04:18 amNNE 8.9 15.0----30.28- 55.2-----
2024-06-20 04:12 amNNE 9.9 14.0----30.28- 55.2-----
2024-06-20 04:06 amNNE 11.1 14.0----30.28- 55.6-----
2024-06-20 04:00 amNNE 9.9 13.0----30.28+0.01 54.9-----
2024-06-20 03:54 amNNE 8.9 15.0----30.28- 55.0-----
2024-06-20 03:48 amNNE 11.1 15.9----30.28- 55.2-----
2024-06-20 03:42 amNNE 12.0 17.1----30.28- 55.4-----
2024-06-20 03:36 amNNE 9.9 15.9----30.28- 55.0-----
2024-06-20 03:30 amNNE 11.1 15.0----30.28- 54.9-----
2024-06-20 03:24 amNNE 9.9 14.0----30.28- 54.0-----
2024-06-20 03:18 amNNE 8.9 14.0----30.28- 54.5-----
2024-06-20 03:12 amNNE 11.1 17.1----30.28- 55.6-----
2024-06-20 03:06 amNNE 11.1 15.9----30.29- 55.8-----
2024-06-20 03:00 amNNE 9.9 15.9----30.28+0.04 57.0-----
2024-06-20 02:54 amNNE 9.9 15.9----30.28- 57.2-----
2024-06-20 02:48 am N 9.9 15.9----30.28- 56.8-----
2024-06-20 02:42 am N 8.9 15.9----30.28- 56.7-----
2024-06-20 02:36 amNNE 8.0 15.0----30.28- 56.5-----
2024-06-20 02:30 amNNE 8.0 15.0----30.28- 56.1-----
2024-06-20 02:24 amNNE 9.9 14.0----30.27- 56.1-----
2024-06-20 02:18 amNNE 9.9 13.0----30.27- 56.1-----
2024-06-20 02:12 amNNE 9.9 13.0----30.27- 55.9-----
2024-06-20 02:06 amNNE 8.9 14.0----30.27- 55.9-----
2024-06-20 02:00 amNNE 8.9 13.0----30.27+0.05 56.3-----
2024-06-20 01:54 amNNE 8.0 11.1----30.27- 56.1-----
2024-06-20 01:48 amNNE 8.9 13.0----30.27- 56.3-----
2024-06-20 01:42 amNNE 9.9 14.0----30.27- 56.7-----
2024-06-20 01:36 amNNE 9.9 14.0----30.27- 56.7-----
2024-06-20 01:30 amNNE 9.9 15.0----30.27- 56.8-----
2024-06-20 01:24 amNNE 8.9 15.0----30.27- 56.7-----
2024-06-20 01:18 amNNE 8.9 13.0----30.27- 56.8-----
2024-06-20 01:12 amNNE 8.9 13.0----30.27- 56.5-----
2024-06-20 01:06 amNNE 8.9 14.0----30.27- 56.3-----
2024-06-20 01:00 amNNE 12.0 15.0----30.27+0.06 57.4-----
2024-06-20 12:54 amNNE 11.1 15.0----30.27- 58.3-----
2024-06-20 12:48 am N 9.9 17.1----30.27- 58.6-----
2024-06-20 12:42 am N 9.9 18.1----30.27- 58.6-----
2024-06-20 12:36 am N 9.9 17.1----30.26- 58.5-----
2024-06-20 12:30 amNNE 11.1 17.1----30.26- 58.6-----
2024-06-20 12:24 am N 11.1 19.0----30.26- 58.1-----
2024-06-20 12:18 am N 8.0 14.0----30.25- 57.7-----
2024-06-20 12:12 am N 7.0 15.0----30.25- 57.6-----
2024-06-20 12:06 amNNE 8.9 15.0----30.25- 57.7-----
2024-06-20 12:00 amNNE 8.9 17.1----30.25+0.05 57.2-----
2024-06-19 11:54 pmNNE 11.1 15.9----30.25- 56.8-----
2024-06-19 11:48 pmNNE 11.1 19.0----30.24- 56.1-----
2024-06-19 11:42 pmNNE 9.9 15.0----30.24- 55.8-----
2024-06-19 11:36 pmNNE 11.1 15.9----30.24- 56.3-----
2024-06-19 11:30 pmNNE 13.0 19.0----30.24- 58.5-----
2024-06-19 11:24 pmNNE 14.0 19.0----30.23- 62.6-----
2024-06-19 11:18 pmSSE 1.9 2.9----30.23- 62.2-----
2024-06-19 11:12 pm S 2.9 2.9----30.23- 62.4-----
2024-06-19 11:06 pm S 2.9 2.9----30.22- 62.8-----
2024-06-19 11:00 pmSSE 1.9 2.9----30.22+0.04 63.1-----
2024-06-19 10:54 pm SE 1.0 1.9----30.22- 62.8-----
2024-06-19 10:48 pm- 0.0 1.9----30.22- 62.6-----
2024-06-19 10:42 pm S 1.9 1.9----30.22- 62.6-----
2024-06-19 10:36 pmSSE 1.0 1.9----30.22- 62.6-----
2024-06-19 10:30 pmSSE 1.0 1.9----30.22- 62.6-----
2024-06-19 10:24 pm- 0.0 2.9----30.22- 62.2-----
2024-06-19 10:18 pm S 2.9 2.9----30.21- 61.7-----
2024-06-19 10:12 pmSSE 1.9 1.9----30.21- 63.1-----
2024-06-19 10:06 pm S 1.9 1.9----30.21- 66.4-----
2024-06-19 10:00 pm- 0.0 1.0----30.21+0.03 66.4-----
2024-06-19 09:54 pm W 1.0 1.9----30.21- 66.4-----
2024-06-19 09:48 pmWNW 1.0 2.9----30.21- 65.8-----
2024-06-19 09:42 pmWSW 1.0 1.9----30.20- 65.1-----
2024-06-19 09:36 pm- 0.0 1.0----30.20- 64.9-----
2024-06-19 09:30 pm N 1.0 1.9----30.20- 64.9-----
2024-06-19 09:24 pm- 0.0 1.0----30.19- 64.0-----
2024-06-19 09:18 pm N 1.0 1.9----30.20- 64.2-----
2024-06-19 09:12 pm N 1.0 1.9----30.19- 63.9-----
2024-06-19 09:06 pm- 0.0 0.0----30.20- 63.5-----
2024-06-19 09:00 pm- 0.0 1.0----30.20+0.02 62.8-----
2024-06-19 08:54 pmSSW 1.0 1.9----30.19- 62.6-----
2024-06-19 08:48 pm S 1.9 2.9----30.19- 62.1-----
2024-06-19 08:42 pm S 4.1 4.1----30.19- 61.7-----
2024-06-19 08:36 pm S 4.1 4.1----30.20- 61.0-----
2024-06-19 08:30 pm S 4.1 5.1----30.19- 61.5-----
2024-06-19 08:24 pm S 2.9 4.1----30.19- 61.5-----
2024-06-19 08:18 pmSSE 2.9 2.9----30.19- 61.2-----
2024-06-19 08:12 pm S 1.0 4.1----30.19- 60.6-----
2024-06-19 08:06 pm SE 1.9 4.1----30.19- 61.9-----
2024-06-19 08:00 pm E 1.9 4.1----30.18+0.01 62.2-----
2024-06-19 07:54 pm- 0.0 5.1----30.19- 62.1-----
2024-06-19 07:48 pmESE 5.1 6.0----30.19- 66.7-----
2024-06-19 07:42 pmESE 4.1 6.0----30.19- 70.0-----
2024-06-19 07:36 pmESE 1.0 8.0----30.20- 70.5-----
2024-06-19 07:30 pm W 5.1 6.0----30.19- 70.5-----
2024-06-19 07:24 pmNNW 1.9 6.0----30.19- 70.5-----
2024-06-19 07:18 pmWNW 4.1 6.0----30.19- 70.5-----
2024-06-19 07:12 pm NW 2.9 4.1----30.18- 70.5-----
2024-06-19 07:06 pm NW 2.9 5.1----30.19- 70.5-----
2024-06-19 07:00 pm NW 4.1 5.1----30.18+0.02 70.7-----
2024-06-19 06:54 pm NW 5.1 8.0----30.18- 70.7-----